Flag for Switzerland Weather past 2 weeks in Monthey, Valais, Switzerland

Now
57 °F

Cool.


Feels Like: 57 °F
Forecast: 49 / 78 °F
Wind: No wind

Location: Aigle

Current Time: Aug 22, 2014 at 12:22:21 AM

Latest Report: Aug 21, 2014 at 11:00 PM


Visibility: N/A

Pressure: 30.04 "Hg

Humidity: 75%

Dew point: 49 °F

Location of MontheyLocation

Historic Weather in Monthey — Graph

°F

Monthey temperature yesterday

Maximum temperature yesterday: 68 °F (at 3:00 PM)
Minimum temperature yesterday: 50 °F (at 7:00 AM)
Average temperature yesterday: 60 °F

Past Weeks' High & Low Weather Summary

 TemperatureHumidityPressure
High79 °F (Aug 10, 7:00 PM)98% (Aug 21, 7:00 AM)30.21 "Hg (Aug 21, 7:00 AM)
Low47 °F (Aug 17, 7:00 AM)38% (Aug 21, 4:00 PM)29.67 "Hg (Aug 13, 9:00 AM)
Average63 °F79%29.97 "Hg
* Reported Aug 6 10:00 PM — Aug 21 10:00 PM, Monthey, Weather by CustomWeather, © 2014

Note: Actual official high and low records may vary slightly from our data, if they occured in-between our weather recording intervals... More about our weather records

Advertising

Monthey weather history for previous 24 hours

 ConditionsComfort  
Time TempWeatherWind HumidityBarometerVisibility
10:00 PM
Aug 21
55 °FCool.1 mph84%30.03 "HgN/A
9:00 PM63 °FMild.2 mph56%30.00 "HgN/A
8:00 PM63 °FPartly sunny.2 mph74%29.98 "Hg19 mi
7:00 PM66 °FMild.5 mph50%29.97 "HgN/A
6:00 PM66 °FMild.8 mph47%29.97 "HgN/A
5:00 PM66 °FScattered clouds.10 mph38%29.97 "Hg25 mi
4:00 PM68 °FMild.14 mph38%29.97 "HgN/A
3:00 PM68 °FMild.13 mph50%29.98 "HgN/A
2:00 PM67 °FPassing clouds.13 mph51%29.99 "Hg25 mi
1:00 PM66 °FMild.10 mph56%30.01 "HgN/A
12:00 PM64 °FMild.10 mph63%30.03 "HgN/A
11:00 AM63 °FMild.7 mph65%30.04 "HgN/A
10:00 AM61 °FCool.2 mph65%30.05 "HgN/A
9:00 AM58 °FCool.2 mph82%30.06 "HgN/A
8:00 AM55 °FPassing clouds.3 mph91%30.07 "Hg19 mi
7:00 AM50 °FCool.1 mph98%30.08 "HgN/A
6:00 AM52 °FCool.2 mph97%30.07 "HgN/A
5:00 AM51 °FOvercast.No wind97%30.08 "Hg12 mi
4:00 AM54 °FCool.2 mph86%30.08 "HgN/A
3:00 AM53 °FCool.1 mph96%30.09 "HgN/A
2:00 AM55 °FCool.No wind96%30.07 "HgN/A
1:00 AM55 °FCool.2 mph96%30.07 "HgN/A
12:00 AM57 °FCool.3 mph96%30.07 "HgN/A
Weather by CustomWeather, © 2014

See weather overviewHow to use our weather pages